Showing default

SKYNET 5C, 33055

Orbit data source: Space-Track

SKYNET 5C, 33055 is a payload satellite owned by Paradigm (UK) in GEO that was launched on Thu, 12 Jun 2008 UTC via an ARIANE 5ECA launch vehicle from the French Guiana (FRGUI). Payloads include a variety of satellites, spacecraft, and rockets equipped with specific instruments for various scientific and technological missions. These include communications satellites like Starlink; space stations such as the ISS; scientific satellites like the Hubble; Earth observation satellites from companies like Planet Labs, Umbra, and HawkEye 360; GPS; miniature CubeSats for education and research; and military/defense satellites.

Not visible in the next 10 days
SKYNET 5C details
Identifier
33055, 2008-030A
Orbit
GEO
Last TLE update9 hours ago
Origin
Flag of UKParadigm (UK)
ManufacturerEADS/Bremen
MissionOperational Defense Communications
Bus & MotorEUROSTAR 3000, R-4D-15-375
Mass4,635 kg wet, 2,170 kg dry
Launch date (UTC)
2008-06-12 (17 years ago)
Launch vehicle
ARIANE 5ECA
Launch site
French Guiana (FRGUI)
Object type
Payload
Rocket body
Debris
Shape & HBRBox + 2 Pan, 34 m
Radar Cross Section41.425 m², Large (>1 m²)

Expand to show TLE details & history

TLE from 9 hours ago
0 SKYNET 5C
1 33055U 08030A   24361.20778517 -.00000113  00000-0  00000-0 0  9996
2 33055   2.4039  83.3306 0004895 203.3916 225.4578  1.00271403 60567
Epoch: 2024-12-26T04:59Z
Definitive object data (Epoch: 2024-12-26T04:59:12.638Z)
Latitude2.25407°
Longitude-17.87482°
Altitude35,800.431 km
Speed3.074 km/s
True Right ascension10h 08m 28s
True Declination2° 15' 06"
Sunlit
Object was in daylight at TLE epoch
Visualization TLE readout
Latitude-1.21073°
Longitude122.92775°
Altitude35,765.782 km
Speed3.076 km/s
Apparent Right ascension19h 58m 19s
Apparent Declination-6° 42' 22"
Sunlit
Object is in daylight
Visualization observer readout
Local Sidereal Time13:42:32
Azimuth92.642° ESE
Elevation-7.316°
Doppler factor1
Orbital elements
Apogee altitude35,808.41 km
Perigee altitude35,767.129 km
Semi-major axis42,165.907 km
Eccentricity0.0004895
Inclination2.4039°
RAAN83.3306°
Arg. of periapsis203.3916°
True anomaly225.41784°
Mean anomaly225.4578°
Eccentric anomaly225.43782°
Mean motion0.25067 °/min
BSTARUnknown
Orbital period1436.16 mins
Loading historical data...
33055 neighbors
Authenticating...
Loading maneuver chart data...
Loading historical data...
Loading historical data...
Loading historical data...
Loading historical data...
Loading historical data...
Loading historical data...
Loading historical data...

SKYNET 5C Visibility forecast

Observer location: undefined°, undefined

SKYNET 5C is not visible in the next 10 days
Span
Click to sort rows by Start time (UTC) header in descending order
Start Az.
Max El. time (UTC)
Max El. Az.
Max El.
End time (UTC)
End Az.
|